www.pogodaiklimat.ru

Погода и климат >> Архив погоды >> Россия >> Ленинградская область >> Выборг


АРХИВ ПОГОДЫ в Выборге

Время (UTC), дата Ветер
(напр.,м/с)
 
Видим.   Явления Облачность Т
(С)
Тd
(С)
f
(%)
Тe
(С)
Тes
(С)
Комфортность P
(гПа)
Po
(гПа)
Тmin
(С)
Tmax
(С)
R
(мм)
R24
(мм)
S
(см)
00 16.07 Ю 1 20 км ясно +12.6 +9.9 84 +13 +13 по сезону 1010.3 1008.8
03 16.07 В 1 20 км ясно +11.7 +9.3 85 +12 +12 прохладно 1009.9 1008.4 +10.4
06 16.07 ЮВ 4 20 км 3/0
[Ci fib]
+17.8 +10.8 64 +18 +22 по сезону 1009.7 1008.2 +10.4
09 16.07 Ю 3 20 км 9/6 600 м
[Cu med, cong Ac trans]
+20.1 +10.1 53 +22 +24 комфорт 1010.0 1008.5
12 16.07 В 5 20 км 8/6 600 м
[Cu med, cong Ci fib]
+22.2 +9.9 46 +24 +26 комфорт 1009.4 1007.9
15 16.07 В 4 20 км 8/4 600 м
[Cu med, cong Ci fib]
+21.5 +9.4 46 +23 +24 комфорт 1009.4 1007.9
18 16.07 В 3 20 км 8/3 600 м
[Cu med, cong Cs]
+19.2 +8.5 50 +20 +20 по сезону 1010.0 1008.5 +22.9
21 16.07 СВ 3 20 км 6/0
[Cs]
+14.9 +9.1 68 +14 +14 прохладно 1010.6 1009.1
00 17.07 СВ 2 20 км 4/0
[Ac trans Ci fib]
+12.3 +7.8 74 +11 +11 прохладно 1010.2 1008.7
03 17.07 СВ 2 20 км 6/0
[Ac trans Ci fib]
+13.0 +10.5 85 +12 +13 прохладно 1010.1 1008.6 +11.8
06 17.07 СВ 3 20 км 6/3 600 м
[Cu med, cong Ac trans Ci fib]
+17.1 +12.4 74 +17 +20 по сезону 1010.3 1008.8 +11.7
09 17.07 СВ 3 20 км 9/3 600 м
[Cu med, cong Ac trans Ci fib]
+20.9 +11.1 53 +23 +27 комфорт 1010.3 1008.8
12 17.07 В 4 20 км 9/4 600 м
[Cb cap Ac trans Cs]
+21.2 +8.3 43 +22 +25 комфорт 1010.1 1008.6
15 17.07 СВ 3 20 км 9/3 600 м
[Cb cap Ac trans Cs]
+20.3 +8.2 46 +22 +23 комфорт 1010.2 1008.7
18 17.07 С 2 20 км {ливн. осадки} 8/3 600 м
[Cu med, cong Ac trans Ci fib]
+18.6 +7.6 49 +20 +20 по сезону 1010.1 1008.6 +22.4 0.0
21 17.07 СВ 2 20 км слаб. ливневой дождь 10/6 600 м
[Cb cap Ac As]
+15.2 +11.5 79 +15 +15 прохладно 1010.2 1008.7
00 18.07 СВ 2 20 км {ливн. осадки} 10/5 600 м
[Cb cap Ac As]
+14.6 +12.8 89 +14 +14 по сезону 1009.7 1008.2
03 18.07 СВ 2 20 км 8/3 600 м
[Cu med, cong Ac trans]
+15.0 +12.6 86 +15 +15 по сезону 1009.5 1008.0 +14.4 1
06 18.07 СВ 4 20 км 8/3 600 м
[Cu med, cong Ac trans Ci fib]
+17.9 +13.3 74 +18 +20 по сезону 1009.3 1007.8 +14.4 1
09 18.07 СВ 3 20 км 8/8 1000 м
[Cb cap Ci fib]
+20.6 +13.9 65 +23 +26 комфорт 1008.8 1007.3
12 18.07 СВ 3 20 км 9/6 1000 м
[Cb cap Ac trans Ci fib]
+20.4 +12.8 62 +23 +25 комфорт 1008.5 1007.0
15 18.07 СВ 4 10 км слаб. ливневой дождь 10/9 1500 м
[Cb cap Ac trans]
+17.6 +14.7 83 +17 +17 прохладно 1008.7 1007.2 0.0
18 18.07 С 3 10 км слаб. ливневой дождь 10/4 600 м
[Cb cap Ac trans]
+16.8 +14.4 86 +17 +17 прохладно 1008.2 1006.7 +21.5 0.4
21 18.07 С 2 20 км в посл. час ливневой дождь 10/9 600 м
[Cb cap Ac trans]
+15.6 +14.2 91 +15 +15 прохладно 1007.9 1006.4
00 19.07 С 4 4000 м слаб. ливневой дождь 10/10 300 м
[Cb cap]
+15.5 +14.3 93 +14 +14 по сезону 1007.6 1006.1
03 19.07 С 2 10 км слаб. ливневой дождь 10/10 300 м
[Cb cap]
+15.7 +14.3 91 +16 +16 по сезону 1007.4 1005.9 +15.5 2
06 19.07 С 3 20 км {ливн. осадки} 10/9 300 м
[Cb cap Ac trans]
+16.2 +14.1 87 +16 +16 по сезону 1007.1 1005.6 +15.5 2
09 19.07 С 2 10 км слаб. ливневой дождь 10/9 400 м
[Cb cap Ac As]
+16.7 +15.0 90 +17 +17 прохладно 1007.1 1005.6
12 19.07 С 3 6000 м слаб. ливневой дождь 10/8 330 м
[Cb cap As op]
+16.2 +15.0 93 +16 +16 холодно 1007.6 1006.1
15 19.07 С 3 20 км {ливн. осадки} 10/9 630 м
[Cb cap As op]
+17.2 +14.4 84 +17 +17 прохладно 1008.5 1007.0 2
18 19.07 С 2 20 км {ливн. осадки} 10/10 420 м
[Sc diur, vesp]
+16.2 +13.9 86 +16 +16 прохладно 1008.7 1007.2 +17.4 2
21 19.07 С 2 20 км 10/10 570 м
[Sc]
+15.7 +13.6 87 +16 +16 по сезону 1009.1 1007.6
00 20.07 С 2 20 км в посл. час ливневой дождь 10/8 500 м
[Cb cap Ac trans]
+15.2 +14.0 93 +15 +15 по сезону 1009.5 1008.0
03 20.07 С 2 10 км слаб. ливневой дождь 10/9 420 м
[Cb cap As op]
+15.5 +14.1 91 +15 +15 прохладно 1010.5 1009.0 +15.1 0.3
06 20.07 С 2 20 км {ливн. осадки} 10/9 450 м
[Cu med, cong As op]
+16.5 +14.2 86 +17 +17 по сезону 1011.5 1010.0 +15.1 0.3
09 20.07 С 3 20 км 6/0
[Ac trans]
+21.1 +13.3 61 +23 +30 комфорт 1012.3 1010.8
12 20.07 С 2 20 км 8/8 1000 м
[Cu med, cong]
+22.8 +12.9 54 +26 +28 жарко 1014.0 1012.5
15 20.07 С 3 20 км 6/6 600 м
[Cu med, cong]
+20.4 +11.8 58 +23 +24 комфорт 1014.7 1013.2 0.0
18 20.07 С 1 20 км 8/0
[Ac trans]
+19.5 +9.8 53 +22 +22 комфорт 1015.4 1013.9 +24.1
21 20.07 СЗ 1 20 км 3/0
[Ac trans]
+15.1 +12.3 83 +16 +16 по сезону 1016.7 1015.4
00 21.07 штиль 0 20 км 3/0
[Ac trans]
+13.1 +11.4 89 +13 +13 по сезону 1017.4 1015.8
03 21.07 штиль 0 20 км ясно +13.2 +11.7 91 +13 +14 прохладно 1017.7 1016.1 +11.8
06 21.07 штиль 0 20 км ясно +20.2 +13.0 63 +22 +30 комфорт 1017.9 1016.4 +11.8
09 21.07 Ю 2 20 км 4/4 600 м
[Cu med, cong]
+23.7 +14.0 55 +26 +33 жарко 1018.1 1016.6
12 21.07 ЮЗ 4 20 км 6/4 600 м
[Cu med, cong Ac trans]
+23.8 +14.2 55 +26 +30 жарко 1018.1 1016.6
15 21.07 ЮЗ 3 20 км 5/4 600 м
[Cu med, cong Ac trans]
+23.0 +15.7 63 +27 +29 душно 1017.6 1016.1
18 21.07 ЮЗ 1 20 км 3/3 600 м
[Cu med, cong]
+21.4 +14.4 64 +24 +24 комфорт 1017.1 1015.6 +25.4
21 21.07 штиль 0 20 км 3/0
[Ac trans]
+17.4 +12.6 73 +17 +17 по сезону 1017.7 1016.2
00 22.07 З 1 20 км 1/0
[Ac trans]
+14.9 +14.0 94 +15 +15 по сезону 1017.9 1016.3
03 22.07 С 1 20 км 4/3
[Cu med, cong Ac trans]
+13.6 +12.7 94 +14 +14 прохладно 1017.6 1016.0 +13.1
06 22.07 В 1 20 км 3/0
[Ac trans]
+20.0 +12.6 62 +23 +29 комфорт 1017.0 1015.5 +13.1
09 22.07 ЮЗ 1 20 км 8/5 600 м
[Cb cap Ci fib]
+24.3 +12.1 46 +26 +32 жарко 1016.6 1015.1
12 22.07 ЮЗ 3 20 км 8/8 600 м
[Cb cap Ci fib]
+24.0 +13.2 51 +26 +28 жарко 1016.2 1014.7
15 22.07 З 2 20 км 5/4 600 м
[Cb cap Ac trans]
+25.5 +12.1 43 +27 +29 жарко 1015.4 1013.9
18 22.07 штиль 0 20 км 3/0
[Ac trans]
+23.4 +13.3 53 +27 +27 душно 1014.9 1013.4 +25.8
21 22.07 СВ 1 20 км ясно +16.3 +14.6 90 +17 +17 по сезону 1015.2 1013.7

 

Местоположение метеостанции Выборг (Ленинградская область, Россия): широта 60.72 долгота 28.73 высота над уровнем моря 13 м.

В архиве по умолчанию представлена погода в Выборге за последнюю неделю. Архивные данные за месяц целиком и за предыдущие месяцы, начиная с января 2011 года, Вы можете получить, выбрав интересующий диапазон дат из раскрывающегося списка и нажав кнопку "Ввод!".


*Определитесь, кто Вы:
робот инопланетянин человек

Внимание! Время в таблицах - всемирное. Для получения местного времени необходимо прибавить поправку, которая равна 3 ч.

Смотрите также архив погоды в соседних городах и на ближайших метеорологических станциях:

Погода в Лесогорском (Ленинградская область, Россия) (36 км)
Погода в Лаппеенранте (Финляндия) (47 км)
Погода в Лаппеенранта аэропорту (Финляндия) (47 км)
Погода в Хиеккапакке (Финляндия) (55 км)
Погода в Озерках (Ленинградская область, Россия) (60 км)
Погода в Коивуниеми (Финляндия) (62 км)
Погода в Рощино (Ленинградская область, Россия) (72 км)
Погода в Сосново (Ленинградская область, Россия) (89 км)
Погода в Париккала Коицанлахти (Финляндия) (89 км)
Погода в Пуумале (Финляндия) (94 км)

Пояснения к столбцам:

Ветер - указаны скорость ветра в м/с - средняя за 10 мин, порывы в срок и между сроками (в фигурных скобках) и направление, откуда дует ветер: С - северный, СВ - северо-восточный, В - восточный, ЮВ - юго-восточный, Ю - южный, ЮЗ - юго-западный, З - западный, СЗ - северо-западный.
Видимость - горизонтальная дальность видимости в метрах или километрах. При видимости от 1 до 10 км при отсутствии осадков обычно наблюдается дымка, при ухудшении видимости до 1 км и менее - туман. В сухую погоду видимость может ухудшаться дымом, пылью или мглою.
Явления - указаны атмосферные явления, наблюдавшиеся в срок или в последний час перед сроком; фигурными скобками обозначены явления, наблюдавшиеся между сроками (за 1-3 часа до срока); квадратными скобками обозначены град или гололедные отложения с указанием их диаметра в мм.
Облачность - указаны через наклонную черту общая и нижняя облачность в баллах и высота нижней границы облаков в метрах; квадратными скобками обозначены формы облаков: Ci - перистые, Cs - перисто-слоистые, Cc - перисто-кучевые, Ac - высококучевые, As - высокослоистые, Sc - слоисто-кучевые, Ns - слоисто-дождевые, Cu - кучевые, Cb - кучево-дождевые. Подробнее классификацию облаков см. в Атласе облаков (PDF).
T - Температура воздуха - температура, измеренная на высоте 2 м над землей.
Td - Температура точки росы - температура, при понижении до которой содержащийся в воздухе водяной пар достигнет насыщения.
f - Относительная влажность воздуха - влажноcть воздуха, измеренная на высоте 2 м над землей.
Te - Эффективная температура - температура, которую ощущает одетый по сезону человек в тени. Характеристика душности погоды. При расчете учитывается влияние влажности воздуха и скорости ветра на теплоощущения человека.
Tes - Эффективная температура на солнце - температура, которую ощущает человек, с поправкой на солнечный нагрев. Характеристика знойности погоды. Зависит от высоты солнца над горизонтом, облачности и скорости ветра. Ночью, в пасмурную погоду, а также при ветре 12 м/с и более поправка равна нулю.
P - Атмосферное давление - приведенное к уровню моря атмосферное давление.
Po - Атмосферное давление - измеренное на уровне метеостанции атмосферное давление.
Tmin - Минимальная температура - минимум температуры воздуха на высоте 2 м над землей.
Tmax - Максимальная температура - максимум температуры воздуха на высоте 2 м над землей.
R - Количество осадков - Количество выпавших осадков за период времени, мм. При наведении курсора мыши на число - период времени, за который выпало указанное количество осадков.
R24 - Количество осадков - Количество выпавших осадков за 24 часа, мм.
S - Снежный покров - Высота снежного покрова, см. При наведении курсора мыши на число - состояние снежного покрова и степень покрытия местности в баллах.